GW4731 Weather Reports


time (UTC)temp
C
wind
direction
speed
KPH
gust
KPH
rain 1hr
cm
rain 24hr
cm
rain mn
cm
humidity
%
barometer
mb
20260509201900 21 251 0.0 0.0 0.00 0.00 0.00 49 1010.1
20260509201356 21 139 0.0 3.2 0.00 0.00 0.00 50 1010.1
20260509200854 21 183 3.2 9.7 0.00 0.00 0.00 48 1009.9
20260509200348 22 239 3.2 4.8 0.00 0.00 0.00 48 1010.1
20260509195845 22 217 0.0 1.6 0.00 0.00 0.00 48 1009.9
20260509195345 22 325 0.0 3.2 0.00 0.00 0.00 51 1010.1
20260509194845 21 230 0.0 3.2 0.00 0.00 0.00 49 1010.5
20260509194341 22 260 0.0 3.2 0.00 0.00 0.00 51 1010.5
20260509193838 22 282 0.0 0.0 0.00 0.00 0.00 45 1010.3
20260509193338 22 271 8.0 14.5 0.00 0.00 0.00 49 1010.3
20260509192834 22 211 6.4 11.3 0.00 0.00 0.00 48 1010.5
20260509192330 21 198 3.2 6.4 0.00 0.00 0.00 48 1010.3
20260509191825 22 120 1.6 3.2 0.00 0.00 0.00 52 1010.2
20260509191321 21 222 8.0 12.9 0.00 0.00 0.00 49 1010.6
20260509190818 20 73 1.6 4.8 0.00 0.00 0.00 51 1010.5
20260509190315 21 162 9.7 12.9 0.00 0.00 0.00 51 1010.7
20260509185812 21 214 12.9 14.5 0.00 0.00 0.00 50 1010.5
20260509185308 20 195 1.6 9.7 0.00 0.00 0.00 52 1010.5
20260509184806 20 110 6.4 12.9 0.00 0.00 0.00 53 1010.8
20260509184303 20 70 9.7 12.9 0.00 0.00 0.00 53 1010.7
20260509183759 20 137 3.2 9.7 0.00 0.00 0.00 55 1010.8
20260509183255 20 89 1.6 3.2 0.00 0.00 0.00 54 1011.1
20260509182750 20 74 12.9 17.7 0.00 0.00 0.00 56 1011.1
20260509182248 20 101 11.3 22.5 0.00 0.00 0.00 59 1011.0
20260509181745 19 61 8.0 16.1 0.00 0.00 0.00 60 1011.0
20260509181243 20 67 4.8 11.3 0.00 0.00 0.00 58 1011.1
20260509180740 19 196 6.4 6.4 0.00 0.00 0.00 61 1011.4
20260509180236 18 101 3.2 12.9 0.00 0.00 0.00 61 1011.5
20260509175732 18 46 11.3 20.9 0.00 0.00 0.00 61 1011.3
20260509175229 18 46 9.7 11.3 0.00 0.00 0.00 61 1011.4
20260509174725 18 41 14.5 16.1 0.00 0.00 0.00 60 1011.7
20260509174220 17 52 6.4 14.5 0.00 0.00 0.00 63 1011.7
20260509173717 17 59 6.4 12.9 0.00 0.00 0.00 65 1012.1
20260509173212 17 44 8.0 12.9 0.00 0.00 0.00 64 1012.1
20260509172708 17 48 6.4 6.4 0.00 0.00 0.00 66 1012.2
20260509172205 17 61 6.4 9.7 0.00 0.00 0.00 65 1012.2
20260509171701 17 29 8.0 11.3 0.00 0.00 0.00 64 1012.1
20260509171157 17 23 8.0 12.9 0.00 0.00 0.00 65 1012.5
20260509170654 17 21 8.0 12.9 0.00 0.00 0.00 65 1012.5
20260509170150 17 345 4.8 6.4 0.00 0.00 0.00 65 1012.8
20260509165648 17 357 4.8 9.7 0.00 0.00 0.00 66 1012.8
20260509165144 16 53 4.8 6.4 0.00 0.00 0.00 64 1012.8
20260509164640 16 27 4.8 6.4 0.00 0.00 0.00 66 1012.7
20260509164136 16 15 4.8 9.7 0.00 0.00 0.00 65 1012.8
20260509163634 16 18 6.4 9.7 0.00 0.00 0.00 64 1012.7
20260509163129 16 62 8.0 14.5 0.00 0.00 0.00 65 1012.5
20260509162627 16 54 6.4 14.5 0.00 0.00 0.00 63 1012.5
20260509162123 17 351 12.9 14.5 0.00 0.00 0.00 62 1012.3
20260509161619 17 50 12.9 14.5 0.00 0.00 0.00 63 1012.0
20260509161114 17 33 8.0 14.5 0.00 0.00 0.00 65 1012.0
20260509160611 17 35 9.7 14.5 0.00 0.00 0.00 64 1012.2
20260509160106 17 26 12.9 16.1 0.00 0.00 0.00 63 1012.3
20260509155602 17 42 6.4 12.9 0.00 0.00 0.00 64 1012.5
20260509155058 17 25 6.4 12.9 0.00 0.00 0.00 63 1012.5
20260509154554 16 35 6.4 11.3 0.00 0.00 0.00 64 1012.5
20260509154052 17 49 11.3 12.9 0.00 0.00 0.00 62 1012.5
20260509153549 17 54 8.0 12.9 0.00 0.00 0.00 65 1012.5
20260509153046 17 44 1.6 6.4 0.00 0.00 0.00 63 1012.5
20260509152542 16 51 11.3 12.9 0.00 0.00 0.00 67 1012.6
20260509152040 16 39 6.4 12.9 0.00 0.00 0.00 66 1012.7
20260509151535 16 62 11.3 12.9 0.00 0.00 0.00 66 1012.5
20260509151033 16 59 9.7 12.9 0.00 0.00 0.00 68 1012.7
20260509150530 16 37 6.4 11.3 0.00 0.00 0.00 65 1012.6
20260509150029 16 81 6.4 9.7 0.00 0.00 0.00 66 1012.6
20260509145524 16 71 9.7 12.9 0.00 0.00 0.00 67 1012.7
20260509145019 16 55 9.7 14.5 0.00 0.00 0.00 67 1012.5
20260509144517 16 59 6.4 12.9 0.00 0.00 0.00 66 1012.8
20260509144014 16 40 9.7 11.3 0.00 0.00 0.00 65 1012.9
20260509143510 16 60 6.4 12.9 0.00 0.00 0.00 66 1012.9
20260509143009 15 64 6.4 11.3 0.00 0.00 0.00 67 1012.8
20260509142504 15 51 8.0 9.7 0.00 0.00 0.00 65 1013.0
20260509141959 15 81 4.8 6.4 0.00 0.00 0.00 67 1013.2
20260509141456 15 57 3.2 6.4 0.00 0.00 0.00 68 1013.1
20260509140953 14 33 4.8 4.8 0.00 0.00 0.00 68 1013.3
20260509140449 14 60 3.2 4.8 0.00 0.00 0.00 70 1013.3
20260509135948 14 86 3.2 4.8 0.00 0.00 0.00 69 1013.3
20260509135444 14 96 0.0 1.6 0.00 0.00 0.00 68 1013.2
20260509134942 15 70 1.6 4.8 0.00 0.00 0.00 68 1013.0
20260509134439 15 3 0.0 3.2 0.00 0.00 0.00 70 1013.1
20260509133937 14 38 0.0 1.6 0.00 0.00 0.00 69 1012.8
20260509133433 13 27 3.2 6.4 0.00 0.00 0.00 71 1012.8
20260509132931 13 13 8.0 9.7 0.00 0.00 0.00 70 1012.7
20260509132429 13 27 4.8 6.4 0.00 0.00 0.00 71 1012.7
20260509131926 13 37 4.8 6.4 0.00 0.00 0.00 71 1012.8
20260509131423 13 40 3.2 4.8 0.00 0.00 0.00 72 1012.9
20260509130920 13 4 3.2 3.2 0.00 0.00 0.00 70 1012.9
20260509130415 13 12 4.8 9.7 0.00 0.00 0.00 71 1012.9
20260509125912 13 7 6.4 6.4 0.00 0.00 0.00 71 1013.0
20260509125409 13 19 1.6 6.4 0.00 0.00 0.00 71 1012.8
20260509124905 13 17 6.4 9.7 0.00 0.00 0.00 70 1013.0
20260509124402 13 356 1.6 3.2 0.00 0.00 0.00 71 1013.2
20260509123900 13 15 6.4 6.4 0.00 0.00 0.00 72 1013.0
20260509123357 13 37 1.6 3.2 0.00 0.00 0.00 73 1013.0
20260509122852 13 61 3.2 4.8 0.00 0.00 0.00 73 1013.1
20260509122349 13 12 6.4 9.7 0.00 0.00 0.00 73 1012.8
20260509121846 13 32 9.7 11.3 0.00 0.00 0.00 71 1012.7
20260509121343 13 34 1.6 3.2 0.00 0.00 0.00 73 1013.1
20260509120842 13 38 1.6 3.2 0.00 0.00 0.00 73 1013.0
20260509120339 13 36 3.2 4.8 0.00 0.00 0.00 72 1013.3
20260509115837 13 52 1.6 1.6 0.00 0.00 0.00 73 1013.1
20260509115334 13 28 0.0 1.6 0.00 0.00 0.00 72 1013.3
20260509114831 13 14 0.0 0.0 0.00 0.00 0.00 71 1013.0
20260509114330 13 353 0.0 0.0 0.00 0.00 0.00 71 1013.0
20260509113829 12 29 0.0 0.0 0.00 0.00 0.00 70 1013.0
20260509113325 12 189 0.0 0.0 0.00 0.00 0.00 71 1012.9
20260509112822 12 322 0.0 0.0 0.00 0.00 0.00 72 1013.0
20260509112319 12 346 0.0 1.6 0.00 0.00 0.00 72 1012.9
20260509111816 12 19 3.2 4.8 0.00 0.00 0.00 71 1012.9
20260509111313 11 65 0.0 0.0 0.00 0.00 0.00 75 1012.8
20260509110811 11 65 0.0 0.0 0.00 0.00 0.00 78 1012.7
20260509110307 11 13 0.0 0.0 0.00 0.00 0.00 81 1013.0
20260509105806 11 329 0.0 0.0 0.00 0.00 0.00 79 1012.7
20260509105306 11 329 0.0 0.0 0.00 0.00 0.00 78 1012.7
20260509104759 12 329 0.0 0.0 0.00 0.00 0.00 74 1012.7
20260509104256 12 297 0.0 0.0 0.00 0.00 0.00 71 1012.8
20260509103754 11 297 0.0 0.0 0.00 0.00 0.00 69 1012.5
20260509103251 11 297 0.0 0.0 0.00 0.00 0.00 70 1012.6
20260509102750 12 297 0.0 0.0 0.00 0.00 0.00 71 1012.5
20260509102247 11 297 0.0 0.0 0.00 0.00 0.00 70 1012.4
20260509101743 12 297 0.0 0.0 0.00 0.00 0.00 71 1012.2
20260509101239 12 297 0.0 0.0 0.00 0.00 0.00 69 1012.4
20260509100737 12 297 0.0 0.0 0.00 0.00 0.00 68 1012.2
20260509100234 12 268 0.0 0.0 0.00 0.00 0.00 67 1012.3
20260509095730 12 268 0.0 0.0 0.00 0.00 0.00 63 1012.3
20260509095228 12 268 0.0 0.0 0.00 0.00 0.00 62 1012.2
20260509094725 13 269 0.0 0.0 0.00 0.00 0.00 61 1012.1
20260509094221 12 262 0.0 0.0 0.00 0.00 0.00 61 1012.2
20260509093719 12 250 0.0 0.0 0.00 0.00 0.00 63 1012.0
20260509093216 12 231 0.0 0.0 0.00 0.00 0.00 65 1012.1
20260509092714 12 252 0.0 0.0 0.00 0.00 0.00 63 1012.2
20260509092212 13 229 3.2 3.2 0.00 0.00 0.00 63 1012.1
20260509091710 13 222 3.2 4.8 0.00 0.00 0.00 61 1012.1
20260509091206 13 218 3.2 4.8 0.00 0.00 0.00 61 1012.1
20260509090704 13 229 4.8 4.8 0.00 0.00 0.00 61 1012.1
20260509090201 13 227 4.8 6.4 0.00 0.00 0.00 61 1012.2
20260509085658 13 226 3.2 4.8 0.00 0.00 0.00 62 1012.1
20260509085155 13 220 3.2 4.8 0.00 0.00 0.00 61 1012.2
20260509084652 13 223 4.8 9.7 0.00 0.00 0.00 61 1012.1
20260509084148 13 235 4.8 4.8 0.00 0.00 0.00 61 1012.1
20260509083646 13 230 4.8 4.8 0.00 0.00 0.00 61 1012.3
20260509083142 13 217 3.2 4.8 0.00 0.00 0.00 62 1012.4
20260509082640 13 224 3.2 3.2 0.00 0.00 0.00 62 1012.4
20260509082136 13 220 1.6 4.8 0.00 0.00 0.00 62 1012.4
20260509081633 13 224 3.2 4.8 0.00 0.00 0.00 63 1012.4
20260509081131 13 214 3.2 3.2 0.00 0.00 0.00 64 1012.5
20260509080629 13 218 3.2 3.2 0.00 0.00 0.00 62 1012.2
20260509080127 13 222 3.2 4.8 0.00 0.00 0.00 63 1012.4
20260509075624 12 214 3.2 3.2 0.00 0.00 0.00 65 1012.4
20260509075122 13 222 1.6 3.2 0.00 0.00 0.00 63 1012.3
20260509074618 13 229 3.2 3.2 0.00 0.00 0.00 64 1012.5
20260509074115 12 221 3.2 3.2 0.00 0.00 0.00 65 1012.5
20260509073612 12 238 1.6 3.2 0.00 0.00 0.00 66 1012.4
20260509073108 12 223 1.6 3.2 0.00 0.00 0.00 65 1012.5
20260509072605 12 233 0.0 3.2 0.00 0.00 0.00 65 1012.4
20260509072102 12 235 3.2 4.8 0.00 0.00 0.00 65 1012.5
20260509071558 13 233 3.2 4.8 0.00 0.00 0.00 64 1012.7
20260509071056 13 229 3.2 4.8 0.00 0.00 0.00 64 1012.6
20260509070553 12 224 4.8 4.8 0.00 0.00 0.00 64 1012.5
20260509070049 12 214 3.2 4.8 0.00 0.00 0.00 64 1012.7
20260509065544 12 235 3.2 4.8 0.00 0.00 0.00 64 1012.8
20260509065041 12 219 4.8 6.4 0.00 0.00 0.00 64 1012.8
20260509064538 12 227 4.8 6.4 0.00 0.00 0.00 65 1012.8
20260509064037 13 228 4.8 4.8 0.00 0.00 0.00 64 1012.7
20260509063531 13 228 4.8 6.4 0.00 0.00 0.00 63 1012.9
20260509063029 12 221 3.2 6.4 0.00 0.00 0.00 64 1012.9
20260509062526 12 220 4.8 4.8 0.00 0.00 0.00 66 1012.9
20260509062024 12 219 3.2 4.8 0.00 0.00 0.00 66 1013.0
20260509061520 12 226 1.6 3.2 0.00 0.00 0.00 66 1013.1
20260509061018 12 224 1.6 3.2 0.00 0.00 0.00 68 1013.0
20260509060515 12 238 1.6 3.2 0.00 0.00 0.00 68 1013.1
20260509060011 12 241 1.6 3.2 0.00 0.00 0.00 67 1013.0
20260509055506 12 234 1.6 3.2 0.00 0.00 0.00 66 1013.1
20260509055003 12 228 3.2 4.8 0.00 0.00 0.00 64 1013.3
20260509054459 13 252 3.2 4.8 0.00 0.00 0.00 64 1013.0
20260509053958 12 241 1.6 3.2 0.00 0.00 0.00 64 1013.1
20260509053455 12 244 4.8 4.8 0.00 0.00 0.00 64 1013.1
20260509052952 12 221 4.8 4.8 0.00 0.00 0.00 65 1013.0
20260509052450 12 217 3.2 4.8 0.00 0.00 0.00 65 1013.3
20260509051948 12 257 3.2 4.8 0.00 0.00 0.00 67 1013.0
20260509051445 11 229 3.2 4.8 0.00 0.00 0.00 71 1013.1
20260509050942 10 229 0.0 1.6 0.00 0.00 0.00 77 1013.1
20260509050438 10 245 0.0 0.0 0.00 0.00 0.00 75 1013.0
20260509045935 10 249 0.0 0.0 0.00 0.00 0.00 73 1012.8
20260509045432 10 249 0.0 0.0 0.00 0.00 0.00 72 1013.0
20260509044929 10 263 0.0 0.0 0.00 0.00 0.00 72 1013.2
20260509044427 10 247 0.0 0.0 0.00 0.00 0.00 74 1013.1
20260509043924 10 242 0.0 0.0 0.00 0.00 0.00 76 1013.1
20260509043420 9 235 0.0 0.0 0.00 0.00 0.00 74 1013.2
20260509042915 8 269 0.0 0.0 0.00 0.00 0.00 79 1013.2
20260509042413 8 269 0.0 0.0 0.00 0.00 0.00 78 1013.3
20260509041909 9 269 0.0 0.0 0.00 0.00 0.00 78 1013.1
20260509041406 9 269 0.0 0.0 0.00 0.00 0.00 74 1013.1
20260509040904 10 269 0.0 0.0 0.00 0.00 0.00 74 1013.5
20260509040402 10 269 0.0 0.0 0.00 0.00 0.00 73 1013.4
20260509035858 10 294 0.0 0.0 0.00 0.00 0.00 69 1013.2
20260509035355 11 348 0.0 0.0 0.00 0.00 0.00 67 1013.4
20260509034851 12 311 0.0 1.6 0.00 0.00 0.00 63 1013.5
20260509034349 13 311 0.0 1.6 0.00 0.00 0.00 61 1013.3
20260509033846 13 298 0.0 1.6 0.00 0.00 0.00 56 1013.3
20260509033344 13 260 0.0 0.0 0.00 0.00 0.00 57 1013.2
20260509032840 13 232 1.6 3.2 0.00 0.00 0.00 57 1013.4
20260509032338 13 227 4.8 4.8 0.00 0.00 0.00 58 1013.3
20260509031836 13 216 4.8 4.8 0.00 0.00 0.00 57 1013.2
20260509031332 13 225 3.2 4.8 0.00 0.00 0.00 57 1013.3
20260509030830 12 228 3.2 4.8 0.00 0.00 0.00 59 1013.2
20260509030327 12 223 1.6 3.2 0.00 0.00 0.00 62 1013.3
20260509025824 12 238 0.0 0.0 0.00 0.00 0.00 64 1013.3
20260509025320 11 248 0.0 0.0 0.00 0.00 0.00 66 1013.5
20260509024815 10 232 0.0 0.0 0.00 0.00 0.00 69 1013.5
20260509024312 10 230 0.0 0.0 0.00 0.00 0.00 70 1013.5
20260509023809 11 230 0.0 0.0 0.00 0.00 0.00 68 1013.5
20260509023306 11 230 0.0 0.0 0.00 0.00 0.00 66 1013.7
20260509022802 11 252 0.0 0.0 0.00 0.00 0.00 63 1013.6
20260509022300 12 252 0.0 0.0 0.00 0.00 0.00 61 1013.6
20260509021756 12 251 0.0 0.0 0.00 0.00 0.00 59 1013.7
20260509021254 13 251 0.0 0.0 0.00 0.00 0.00 55 1013.5
20260509020751 13 257 0.0 0.0 0.00 0.00 0.00 54 1013.7
20260509020249 13 257 0.0 0.0 0.00 0.00 0.00 53 1013.4
20260509015747 14 225 0.0 0.0 0.00 0.00 0.00 53 1013.5
20260509015245 14 162 0.0 1.6 0.00 0.00 0.00 52 1013.3
20260509014741 14 134 0.0 1.6 0.00 0.00 0.00 51 1013.3
20260509014238 15 193 0.0 1.6 0.00 0.00 0.00 50 1013.4
20260509013734 15 168 0.0 1.6 0.00 0.00 0.00 49 1013.3
20260509013230 15 149 0.0 3.2 0.00 0.00 0.00 49 1013.7
20260509012727 15 161 0.0 0.0 0.00 0.00 0.00 50 1013.6
20260509012223 15 122 0.0 0.0 0.00 0.00 0.00 50 1013.5
20260509011721 15 171 0.0 0.0 0.00 0.00 0.00 49 1013.3
20260509011219 15 142 0.0 0.0 0.00 0.00 0.00 49 1013.3
20260509010716 15 138 0.0 0.0 0.00 0.00 0.00 48 1013.3
20260509010212 15 180 0.0 1.6 0.00 0.00 0.00 50 1013.2
20260509005710 15 208 1.6 3.2 0.00 0.00 0.00 50 1013.2
20260509005207 16 171 1.6 1.6 0.00 0.00 0.00 49 1013.4
20260509004702 16 193 0.0 0.0 0.00 0.00 0.00 48 1013.4
20260509004200 16 204 0.0 0.0 0.00 0.00 0.00 49 1013.4
20260509003658 16 76 0.0 0.0 0.00 0.00 0.00 48 1013.3
20260509003155 17 76 0.0 0.0 0.00 0.00 0.00 46 1013.3
20260509002652 17 81 0.0 0.0 0.00 0.00 0.00 44 1013.3
20260509002149 17 145 0.0 3.2 0.00 0.00 0.00 42 1013.1
20260509001647 17 166 3.2 3.2 0.00 0.00 0.00 43 1013.2
20260509001142 18 181 0.0 1.6 0.00 0.00 0.00 43 1013.1
20260509000641 18 138 0.0 3.2 0.00 0.00 0.00 43 1013.1
20260509000137 18 138 0.0 0.0 0.00 0.00 0.00 44 1013.0
20260508235635 18 74 1.6 3.2 0.00 0.00 0.00 44 1013.0
20260508235131 18 46 1.6 1.6 0.00 0.00 0.00 45 1012.9
20260508234629 18 59 0.0 1.6 0.00 0.00 0.00 46 1012.8
20260508234125 18 71 1.6 1.6 0.00 0.00 0.00 44 1012.9
20260508233624 18 39 0.0 0.0 0.00 0.00 0.00 45 1012.9
20260508233122 18 55 0.0 1.6 0.00 0.00 0.00 43 1012.8
20260508232618 18 64 0.0 0.0 0.00 0.00 0.00 44 1012.8
20260508232115 18 24 0.0 0.0 0.00 0.00 0.00 47 1012.7
20260508231613 19 13 1.6 3.2 0.00 0.00 0.00 40 1012.6
20260508231109 19 21 1.6 3.2 0.00 0.00 0.00 41 1012.6
20260508230606 19 13 1.6 1.6 0.00 0.00 0.00 40 1012.8
20260508225601 20 4 1.6 4.8 0.00 0.00 0.00 39 1012.6
20260508225057 20 347 3.2 4.8 0.00 0.00 0.00 36 1012.8
20260508224555 20 1 1.6 3.2 0.00 0.00 0.00 36 1012.6
20260508224052 20 0 1.6 4.8 0.00 0.00 0.00 36 1012.6
20260508223549 21 75 8.0 9.7 0.00 0.00 0.00 35 1012.6
20260508223046 20 345 1.6 3.2 0.00 0.00 0.00 38 1012.8
20260508222544 20 5 0.0 3.2 0.00 0.00 0.00 37 1012.8
20260508222041 20 330 1.6 3.2 0.00 0.00 0.00 36 1012.8
20260508221537 21 334 1.6 3.2 0.00 0.00 0.00 34 1012.6
20260508221033 21 329 0.0 4.8 0.00 0.00 0.00 35 1012.8
20260508220530 21 41 8.0 12.9 0.00 0.00 0.00 34 1012.7
20260508220026 21 316 3.2 6.4 0.00 0.00 0.00 34 1012.7
20260508215523 21 0 6.4 12.9 0.00 0.00 0.00 37 1012.7
20260508215020 21 16 6.4 11.3 0.00 0.00 0.00 33 1012.6
20260508214517 21 170 0.0 6.4 0.00 0.00 0.00 35 1012.8
20260508214013 21 294 4.8 6.4 0.00 0.00 0.00 35 1012.7
20260508213511 20 289 3.2 6.4 0.00 0.00 0.00 34 1013.0
20260508213007 20 327 4.8 9.7 0.00 0.00 0.00 35 1012.9
20260508212503 20 254 1.6 6.4 0.00 0.00 0.00 33 1012.8
20260508211959 20 300 3.2 12.9 0.00 0.00 0.00 34 1012.9
20260508211455 20 322 6.4 9.7 0.00 0.00 0.00 34 1012.9
20260508210952 21 326 6.4 11.3 0.00 0.00 0.00 36 1012.9
20260508210448 22 312 6.4 14.5 0.00 0.00 0.00 33 1012.8
20260508205945 21 212 4.8 11.3 0.00 0.00 0.00 33 1012.8
20260508205442 20 315 4.8 14.5 0.00 0.00 0.00 34 1012.8
20260508204938 20 340 8.0 12.9 0.00 0.00 0.00 34 1013.1
20260508204436 20 254 4.8 6.4 0.00 0.00 0.00 34 1013.1
20260508203931 20 328 4.8 12.9 0.00 0.00 0.00 34 1013.1
20260508203428 20 332 8.0 14.5 0.00 0.00 0.00 33 1013.0
20260508202923 21 315 3.2 11.3 0.00 0.00 0.00 32 1013.0
20260508202421 22 283 4.8 9.7 0.00 0.00 0.00 31 1013.0